This is the latest recevied weather packets stored in our database for station/object OE3MHU-13. If no packets are shown the sender has not sent any weather packets the latest 10 day(s).
| Time | Temp. | Humidity | Pressure | Rain* | Wind** | Luminosity | Snow |
|---|---|---|---|---|---|---|---|
| 1777193087 | 13.89° C | 45% | 1023.7 hPa | 0 mm | - | - | - |
| 1777192787 | 13.89° C | 47% | 1023.6 hPa | 0 mm | - | - | - |
| 1777192487 | 13.89° C | 46% | 1023.5 hPa | 0 mm | - | - | - |
| 1777192186 | 13.33° C | 48% | 1023.4 hPa | 0 mm | - | - | - |
| 1777191887 | 13.33° C | 49% | 1023.4 hPa | 0 mm | - | - | - |
| 1777191588 | 13.33° C | 49% | 1023.2 hPa | 0 mm | - | - | - |
| 1777191288 | 13.33° C | 49% | 1023.2 hPa | 0 mm | - | - | - |
| 1777190982 | 12.78° C | 50% | 1023.2 hPa | 0 mm | - | - | - |
| 1777190676 | 12.78° C | 50% | 1023.4 hPa | 0 mm | - | - | - |
| 1777190493 | 13.33° C | 51% | 1023 hPa | 0 mm | - | - | - |
| 1777190482 | 13.33° C | 51% | 1023.2 hPa | 0 mm | - | - | - |
| 1777189457 | 12.78° C | 53% | 1023.3 hPa | 0 mm | - | - | - |
| 1777189157 | 12.78° C | 54% | 1022.9 hPa | 0 mm | - | - | - |
| 1777188857 | 12.22° C | 55% | 1022.8 hPa | 0 mm | - | - | - |
| 1777188555 | 12.22° C | 56% | 1022.7 hPa | 0 mm | - | - | - |
| 1777188256 | 12.22° C | 55% | 1022.8 hPa | 0 mm | - | - | - |
| 1777187955 | 12.22° C | 56% | 1022.7 hPa | 0 mm | - | - | - |
| 1777187653 | 11.67° C | 56% | 1022.4 hPa | 0 mm | - | - | - |
| 1777187351 | 11.67° C | 56% | 1022.4 hPa | 0 mm | - | - | - |
| 1777187051 | 12.22° C | 56% | 1022.4 hPa | 0 mm | - | - | - |
| 1777186570 | 12.22° C | 56% | 1022.2 hPa | 0 mm | - | - | - |
| 1777185553 | 12.78° C | 57% | 1021.9 hPa | 0 mm | - | - | - |
| 1777185251 | 12.78° C | 56% | 1021.7 hPa | 0 mm | - | - | - |
| 1777184951 | 12.78° C | 56% | 1021.6 hPa | 0 mm | - | - | - |
| 1777184651 | 13.33° C | 54% | 1021.7 hPa | 0 mm | - | - | - |
* Rain latest hour (hover to see other rain measurements)
** Current wind speed in m/s (hover to see current wind gust speed)